SCP
-0 -0 0 0 -0 -0 0 0 0 0 0 0 0 0 0 0 0 0 0 0 0 1 1 0 0 0 0 0 0 0 0 0 0 0 0 0 0 0 0 0 0 0 0 0
-0 -0 -0 -0 0 0 0 0 0 0 0 0 0 0 0 0 0 0 0 0 0 0 0 0 0 0 0 0 0 0 0 0 0 0 0 0 0 0 0 0 0 0 0 0
-0 -0 -0 0 -0 0 -0 -0 -0 0 0 0 0 0 0 0 0 0 0 0 0 0 0 0 0 0 0 0 0 0 0 0 0 0 0 0 -0 -0 -0 0 0 0 0 0
-0 -0 0 0 0 0 0 0 -0 0 0 0 0 0 0 0 0 0 0 0 0 0 0 0 0 0 0 0 0 0 0 0 0 0 0 0 -0 -0 -0 -0 0 0 0 0
0 0 -0 -0 -0 0 -0 -0 0 0 0 0 0 0 0 0 0 0 0 1 0 0 0 0 0 0 0 0 -0 0 0 0 0 0 -0 -0 -0 -0 0 0 0 0 0 -0
0 0 0 0 0 0 0 -0 0 0 0 0 0 0 0 0 0 1 1 1 0 0 0 0 0 0 0 -0 0 0 0 0 0 0 -0 -0 -0 0 0 0 0 0 0 -0
0 0 0 0 0 0 -0 0 0 0 0 0 0 0 0 0 0 1 2 0 0 0 0 0 0 0 0 -0 0 0 0 -0 -0 -0 -0 -0 -0 0 0 -0 0 0 0 -0
0 0 0 0 0 -0 -0 -0 0 0 0 0 0 0 0 0 0 1 1 0 0 0 0 0 0 0 -0 -0 -0 0 -0 -0 -0 -0 -0 -0 0 -0 0 -0 0 0 0 -0
0 0 0 0 0 -0 -0 -0 0 0 0 0 0 0 0 0 0 2 1 1 0 0 0 0 0 0 -0 -0 -0 0 -0 -0 -0 0 0 -0 -0 0 0 0 0 0 0 0
0 0 0 -0 -0 -0 -0 0 0 0 0 0 0 0 0 1 1 1 1 1 0 0 0 0 0 -0 -0 -0 0 -0 -0 0 0 0 0 0 -0 -0 -0 0 0 0 0 0
0 0 -0 -0 -0 0 0 0 0 0 0 0 0 0 0 0 1 1 0 1 0 0 0 0 0 0 -0 0 0 -0 0 0 0 -0 0 -0 0 0 0 0 0 0 0 0
0 -0 0 0 -0 0 0 0 0 0 0 0 0 0 0 0 1 1 0 0 -0 0 0 -0 -0 0 -0 0 0 -0 -0 0 0 -0 -0 -0 0 0 -0 0 0 0 0 0
-0 0 0 -0 0 0 0 0 0 0 0 0 0 0 0 0 0 0 0 0 0 -0 -0 -0 -0 -0 0 0 0 -0 -0 0 -0 0 0 0 0 0 -0 0 0 0 0 -0
0 0 0 -0 0 0 0 0 0 0 0 0 0 0 0 0 0 0 0 0 0 0 0 0 -0 -0 -0 -0 0 0 0 -0 0 0 -0 0 0 0 -0 0 0 0 0 0
0 0 0 0 -0 0 0 0 0 0 0 0 0 0 0 0 0 0 0 0 0 0 0 0 0 0 0 -0 0 0 -0 -0 -0 -0 0 0 0 0 0 0 0 0 0 0
-0 0 -0 -0 -0 0 0 0 0 0 0 0 0 0 0 0 0 0 0 0 0 0 0 0 0 0 0 0 -0 -0 -0 0 0 -0 -0 0 0 0 0 0 0 -0 -0 0
0 0 0 -0 0 0 0 0 0 0 0 0 0 0 0 0 0 0 0 0 0 0 0 0 0 0 0 0 0 0 0 0 0 0 -0 0 0 0 0 0 0 0 -0 0
-0 -0 -0 0 0 0 0 0 0 0 0 0 0 0 0 0 0 0 0 0 0 0 0 0 0 0 0 0 0 0 0 0 0 0 0 0 0 0 0 0 0 0 0 0
-0 -0 0 0 0 0 0 0 0 0 0 0 0 0 0 0 0 0 0 0 0 0 0 0 0 0 0 0 0 0 0 0 0 0 0 0 0 0 0 0 0 0 0 0
0 -0 0 0 0 0 0 0 0 0 0 0 0 0 0 0 0 0 0 0 0 0 0 0 0 0 0 0 0 0 0 0 0 0 0 0 0 0 0 0 0 0 0 0
0 0 0 -0 0 0 0 0 0 0 0 0 0 0 0 0 0 0 0 0 0 0 0 0 0 0 0 0 0 0 0 0 0 0 0 0 0 0 0 0 0 0 0 0
0 -0 0 0 -0 0 0 0 0 0 0 0 0 0 0 0 0 0 0 0 0 0 0 0 0 0 0 0 0 0 0 0 0 0 0 0 0 0 0 0 0 0 0 0
0 -0 0 0 0 0 0 0 0 0 0 0 0 0 0 0 0 0 0 0 0 0 0 0 0 0 0 0 0 0 0 -0 0 0 0 0 0 0 0 0 0 0 0 0
0 -0 -0 -0 -0 0 0 0 0 0 0 0 0 0 0 0 0 0 0 0 0 0 0 0 0 0 0 0 0 0 0 0 0 0 0 0 0 0 0 0 0 0 0 0
0 -0 -0 -0 -0 0 0 0 0 0 0 0 0 0 0 0 0 0 0 0 0 0 0 0 0 0 0 0 0 0 0 0 0 0 0 0 0 0 0 0 0 0 0 0
0 -0 -0 -0 0 -0 0 0 0 0 0 0 0 0 0 0 0 0 0 0 0 0 0 0 0 0 0 0 0 0 0 0 0 0 0 0 0 0 0 0 0 0 0 0
-0 0 0 -0 -0 -0 0 0 0 0 0 0 0 0 0 0 0 0 0 0 0 0 0 0 0 0 0 0 0 0 0 0 0 0 0 0 0 0 0 0 0 0 0 0
Wind_Speed_500mb
37 38 33 37 37 33 34 37 36 36 47 38 35 31 36 51 55 44 36 24 7 10 22 31 39 43 44 44 44 42 40 37 35 33 30 28 28 29 29 30 25 20 15 12
40 36 37 43 43 42 41 40 42 44 53 43 49 57 51 51 46 40 34 30 11 19 27 35 42 45 46 44 41 38 36 36 35 31 27 27 29 30 32 28 22 20 16 10
26 21 26 31 33 39 44 42 42 42 47 42 45 41 40 49 45 40 38 30 19 29 32 38 42 46 46 43 40 38 36 34 30 27 24 25 27 31 32 25 23 22 15 9
12 4 19 23 3 18 25 27 30 43 45 45 44 50 48 46 45 47 39 27 26 36 39 42 45 46 44 42 40 38 34 29 24 22 21 24 28 32 28 22 21 17 10 5
9 18 28 38 15 8 5 25 32 42 39 37 40 37 42 41 44 47 39 22 33 41 42 49 49 47 44 43 41 36 31 25 22 21 25 27 33 34 26 21 19 15 9 2
7 8 10 6 11 6 20 33 15 32 36 28 22 22 19 7 21 22 17 26 42 44 49 51 51 49 46 44 40 34 28 25 23 23 29 31 31 28 23 19 19 15 10 5
24 12 12 4 8 16 11 9 30 28 30 38 21 25 28 30 39 35 15 37 43 48 51 53 52 50 48 44 38 31 26 26 24 27 29 31 30 26 22 21 20 18 13 8
12 11 10 9 15 9 27 55 50 41 36 37 36 33 38 40 37 34 19 39 44 48 50 53 53 49 49 45 38 28 27 26 25 30 27 28 27 24 21 20 19 17 16 10
6 7 23 41 27 51 75 73 65 38 38 37 41 36 34 30 24 14 23 37 44 46 49 50 50 48 51 46 37 30 29 27 28 31 26 23 20 19 18 17 16 16 15 14
7 3 26 41 30 48 56 7 21 31 30 23 25 22 21 19 20 17 17 32 43 45 47 49 48 48 50 46 39 33 32 30 30 28 25 18 14 14 15 15 14 14 16 16
10 22 27 13 41 51 46 30 24 18 16 12 15 9 7 2 13 21 19 28 42 44 46 48 49 51 48 46 40 35 35 30 29 24 21 16 13 11 14 18 16 12 14 17
7 36 19 22 36 50 47 34 32 27 22 20 19 15 11 5 13 20 16 31 40 44 45 46 50 50 47 44 41 36 35 30 27 23 19 16 14 18 17 18 16 18 25 20
17 34 23 26 33 36 38 37 32 27 25 25 15 9 13 16 17 20 19 25 29 42 45 46 45 46 44 43 42 38 34 28 25 22 19 18 21 20 21 22 18 18 20 20
23 26 23 34 37 36 31 34 26 28 34 35 27 22 27 29 26 26 26 26 27 29 36 41 42 40 40 40 42 39 33 32 26 23 19 19 23 20 20 18 18 19 21 23
24 25 23 30 34 35 28 27 30 32 40 38 40 40 36 35 34 33 35 43 46 35 24 32 36 36 37 37 40 41 34 30 27 23 20 19 19 20 23 20 17 19 21 23
21 27 29 31 33 34 32 30 29 33 42 36 35 40 35 36 36 39 42 39 40 39 26 31 31 18 28 34 38 40 33 31 28 25 22 20 18 17 20 18 19 20 19 19
25 28 33 35 35 36 34 27 27 27 38 39 36 39 38 38 42 49 52 42 39 34 28 22 26 31 28 27 36 37 35 31 29 25 22 22 20 18 18 17 17 19 20 15
16 17 23 28 32 31 28 26 23 25 27 21 32 42 40 48 45 48 47 47 43 37 31 25 16 20 38 42 31 30 33 32 29 26 24 22 20 19 17 17 17 17 18 17
15 16 23 30 30 29 29 22 18 20 25 29 32 38 39 43 42 42 47 51 40 39 41 29 17 18 25 33 42 28 31 30 31 27 24 22 22 20 19 17 16 16 17 15
15 15 21 27 32 33 31 25 19 22 23 27 27 34 36 34 35 38 41 43 40 41 38 29 16 14 23 30 35 30 26 28 27 24 22 20 19 19 17 17 15 17 17 14
14 14 21 25 28 31 32 32 26 25 21 22 28 29 33 33 32 30 31 45 40 34 27 26 20 19 17 29 34 41 44 37 28 24 25 22 24 21 20 19 18 16 14 12
11 13 18 23 24 29 31 31 33 29 28 23 21 21 21 29 34 40 43 45 40 33 31 31 28 25 22 24 35 40 44 45 40 41 41 38 36 35 32 31 33 33 30 26
8 11 13 20 22 24 28 30 33 35 37 37 35 31 33 33 32 33 42 42 36 34 38 35 26 28 35 38 40 37 35 38 44 45 42 34 28 26 23 20 21 23 24 22
11 10 12 16 17 18 25 27 29 34 37 38 34 33 36 40 43 41 42 40 41 40 41 38 34 37 41 48 48 48 50 49 46 48 52 53 49 43 37 36 35 31 28 29
16 14 12 13 14 16 19 22 25 26 29 34 33 38 43 38 38 38 39 38 42 39 45 41 44 44 51 56 58 59 57 55 53 52 51 53 56 59 58 48 42 40 37 36
21 14 14 11 10 14 14 16 20 22 23 26 29 30 30 32 40 41 41 37 36 39 40 41 42 44 47 50 54 58 60 58 56 53 54 51 50 50 48 46 45 42 42 42
19 22 19 14 11 14 15 16 17 18 20 24 28 27 30 36 40 43 42 40 42 42 42 42 44 46 45 47 52 55 56 57 53 54 54 54 58 61 59 56 56 53 50 47
Wind_Direction_500mb
273 281 284 281 275 269 260 262 262 262 271 263 274 301 316 309 309 322 337 4 148 163 149 148 145 141 140 137 135 136 137 136 137 139 141 145 149 152 153 152 155 160 161 167
274 268 270 270 268 264 263 259 259 264 266 271 281 283 288 293 306 310 320 336 175 176 161 151 146 144 142 140 139 139 138 137 137 137 141 146 150 154 152 157 160 160 158 154
255 264 274 273 266 258 252 249 242 252 262 263 266 272 276 284 294 301 303 317 181 184 167 156 154 150 147 145 141 140 140 141 141 140 145 151 153 156 158 161 160 154 154 139
281 272 255 254 46 297 297 275 258 253 259 262 265 271 272 274 279 289 292 293 181 182 169 162 155 152 150 149 146 143 144 144 146 149 154 160 163 161 161 161 164 163 152 128
242 227 266 285 294 351 2 285 285 262 257 268 267 267 265 267 273 277 279 252 180 177 166 159 157 157 154 151 149 149 149 150 156 153 158 154 154 160 164 163 163 167 163 133
260 248 256 24 101 28 296 280 305 255 255 267 246 242 253 232 328 299 256 190 168 166 161 158 160 159 155 154 153 155 156 152 151 154 158 158 160 166 170 169 174 173 162 157
242 254 267 279 30 337 239 355 341 342 329 318 248 250 280 300 305 306 209 163 159 160 161 161 160 160 159 157 158 156 151 150 148 155 158 166 167 173 172 169 180 172 164 165
237 244 260 46 323 231 317 305 303 299 297 292 279 269 273 283 287 289 183 157 157 159 159 160 161 160 161 161 159 153 151 149 153 154 152 157 164 176 178 188 181 178 171 175
261 308 294 296 254 274 272 262 270 271 282 277 281 272 277 279 269 249 165 156 158 158 158 160 162 163 160 160 158 157 146 152 154 153 155 158 169 181 183 185 176 171 168 159
315 289 278 309 305 324 343 327 247 277 280 287 279 276 278 264 232 178 154 167 160 157 159 160 161 161 161 161 160 155 151 150 150 151 153 153 160 173 172 166 163 172 163 162
252 278 309 354 353 342 348 22 28 18 4 343 338 336 295 203 196 169 166 163 162 159 159 161 160 159 161 162 160 154 153 148 151 158 152 157 149 153 148 149 153 164 165 163
319 327 1 335 345 345 350 7 14 12 5 17 3 359 1 118 135 151 148 158 170 162 155 156 161 158 162 164 162 156 158 149 152 151 147 153 150 143 139 135 145 154 148 149
324 349 359 349 345 346 349 356 4 13 25 35 40 78 78 87 95 98 109 154 162 170 167 163 159 165 166 166 168 165 163 160 151 147 149 152 153 148 145 136 125 125 139 155
357 350 357 358 359 352 0 3 1 27 36 44 47 75 81 80 90 92 101 114 138 156 168 170 169 167 170 169 170 171 168 165 157 151 144 148 156 162 140 139 137 133 139 144
5 4 16 359 5 2 6 16 22 23 29 37 52 72 78 85 86 90 98 104 116 116 133 158 165 168 171 171 172 174 172 168 166 157 150 141 158 157 150 143 138 138 140 147
11 15 15 12 7 14 5 17 31 18 28 39 43 61 71 79 83 81 88 112 120 114 102 107 118 130 163 172 173 176 175 173 166 160 158 153 144 155 150 142 135 143 137 156
15 23 9 10 11 12 17 14 32 25 28 34 42 61 69 77 84 81 84 94 106 112 114 141 146 125 140 170 176 178 180 185 175 173 168 166 155 153 160 157 148 143 140 141
35 26 16 10 8 17 22 13 22 40 34 43 57 75 68 74 72 81 90 95 95 95 108 121 142 170 167 159 172 182 183 184 178 179 172 172 171 168 159 161 161 155 153 151
49 39 23 17 24 20 29 32 30 52 41 52 62 70 69 70 73 76 84 93 91 92 89 103 138 168 186 176 163 176 182 178 179 179 175 173 171 176 175 170 164 164 164 172
72 50 35 26 26 28 33 38 48 62 60 58 61 69 68 72 75 75 86 86 78 72 80 89 119 137 170 176 175 149 176 170 167 169 174 174 171 169 174 174 176 171 172 172
72 58 49 42 38 36 36 37 47 57 70 64 61 66 65 64 81 90 79 85 78 84 92 100 95 121 149 175 181 174 146 139 138 135 139 132 130 134 134 132 147 159 151 162
75 63 51 52 49 46 42 46 53 57 69 75 71 74 82 75 75 78 83 82 81 84 92 99 94 100 128 164 171 177 165 163 163 159 159 154 154 155 153 156 153 144 136 127
104 96 70 60 66 63 56 52 54 57 61 61 63 73 79 82 86 90 84 82 83 88 85 86 98 104 115 128 139 146 142 140 144 142 142 142 137 140 139 135 141 147 147 151
143 128 105 85 79 74 72 69 66 66 64 64 67 73 80 85 87 86 89 91 88 87 86 90 102 105 101 101 108 116 120 120 123 124 126 127 124 121 121 119 115 112 114 112
164 147 136 105 86 92 89 80 71 62 66 67 65 64 71 81 86 85 88 90 87 80 85 92 95 96 99 96 96 97 99 102 105 110 113 114 113 111 113 112 107 98 97 98
173 163 153 130 110 113 103 93 91 83 75 74 71 74 75 75 78 83 87 86 80 77 83 82 81 82 86 93 96 93 91 93 98 97 94 94 93 90 90 91 94 93 88 86
179 168 168 157 135 127 126 121 108 97 96 96 92 84 81 79 83 84 83 82 80 80 83 81 80 85 86 88 89 87 91 95 92 90 87 85 85 88 90 91 88 86 83 81
Wind_Speed_850mb
37 38 33 37 37 33 34 37 36 36 47 38 35 31 36 51 55 44 36 24 7 10 22 31 39 43 44 44 44 42 40 37 35 33 30 28 28 29 29 30 25 20 15 12
40 36 37 43 43 42 41 40 42 44 53 43 49 57 51 51 46 40 34 30 11 19 27 35 42 45 46 44 41 38 36 36 35 31 27 27 29 30 32 28 22 20 16 10
26 21 26 31 33 39 44 42 42 42 47 42 45 41 40 49 45 40 38 30 19 29 32 38 42 46 46 43 40 38 36 34 30 27 24 25 27 31 32 25 23 22 15 9
12 4 19 23 3 18 25 27 30 43 45 45 44 50 48 46 45 47 39 27 26 36 39 42 45 46 44 42 40 38 34 29 24 22 21 24 28 32 28 22 21 17 10 5
9 18 28 38 15 8 5 25 32 42 39 37 40 37 42 41 44 47 39 22 33 41 42 49 49 47 44 43 41 36 31 25 22 21 25 27 33 34 26 21 19 15 9 2
7 8 10 6 11 6 20 33 15 32 36 28 22 22 19 7 21 22 17 26 42 44 49 51 51 49 46 44 40 34 28 25 23 23 29 31 31 28 23 19 19 15 10 5
24 12 12 4 8 16 11 9 30 28 30 38 21 25 28 30 39 35 15 37 43 48 51 53 52 50 48 44 38 31 26 26 24 27 29 31 30 26 22 21 20 18 13 8
12 11 10 9 15 9 27 55 50 41 36 37 36 33 38 40 37 34 19 39 44 48 50 53 53 49 49 45 38 28 27 26 25 30 27 28 27 24 21 20 19 17 16 10
6 7 23 41 27 51 75 73 65 38 38 37 41 36 34 30 24 14 23 37 44 46 49 50 50 48 51 46 37 30 29 27 28 31 26 23 20 19 18 17 16 16 15 14
7 3 26 41 30 48 56 7 21 31 30 23 25 22 21 19 20 17 17 32 43 45 47 49 48 48 50 46 39 33 32 30 30 28 25 18 14 14 15 15 14 14 16 16
10 22 27 13 41 51 46 30 24 18 16 12 15 9 7 2 13 21 19 28 42 44 46 48 49 51 48 46 40 35 35 30 29 24 21 16 13 11 14 18 16 12 14 17
7 36 19 22 36 50 47 34 32 27 22 20 19 15 11 5 13 20 16 31 40 44 45 46 50 50 47 44 41 36 35 30 27 23 19 16 14 18 17 18 16 18 25 20
17 34 23 26 33 36 38 37 32 27 25 25 15 9 13 16 17 20 19 25 29 42 45 46 45 46 44 43 42 38 34 28 25 22 19 18 21 20 21 22 18 18 20 20
23 26 23 34 37 36 31 34 26 28 34 35 27 22 27 29 26 26 26 26 27 29 36 41 42 40 40 40 42 39 33 32 26 23 19 19 23 20 20 18 18 19 21 23
24 25 23 30 34 35 28 27 30 32 40 38 40 40 36 35 34 33 35 43 46 35 24 32 36 36 37 37 40 41 34 30 27 23 20 19 19 20 23 20 17 19 21 23
21 27 29 31 33 34 32 30 29 33 42 36 35 40 35 36 36 39 42 39 40 39 26 31 31 18 28 34 38 40 33 31 28 25 22 20 18 17 20 18 19 20 19 19
25 28 33 35 35 36 34 27 27 27 38 39 36 39 38 38 42 49 52 42 39 34 28 22 26 31 28 27 36 37 35 31 29 25 22 22 20 18 18 17 17 19 20 15
16 17 23 28 32 31 28 26 23 25 27 21 32 42 40 48 45 48 47 47 43 37 31 25 16 20 38 42 31 30 33 32 29 26 24 22 20 19 17 17 17 17 18 17
15 16 23 30 30 29 29 22 18 20 25 29 32 38 39 43 42 42 47 51 40 39 41 29 17 18 25 33 42 28 31 30 31 27 24 22 22 20 19 17 16 16 17 15
15 15 21 27 32 33 31 25 19 22 23 27 27 34 36 34 35 38 41 43 40 41 38 29 16 14 23 30 35 30 26 28 27 24 22 20 19 19 17 17 15 17 17 14
14 14 21 25 28 31 32 32 26 25 21 22 28 29 33 33 32 30 31 45 40 34 27 26 20 19 17 29 34 41 44 37 28 24 25 22 24 21 20 19 18 16 14 12
11 13 18 23 24 29 31 31 33 29 28 23 21 21 21 29 34 40 43 45 40 33 31 31 28 25 22 24 35 40 44 45 40 41 41 38 36 35 32 31 33 33 30 26
8 11 13 20 22 24 28 30 33 35 37 37 35 31 33 33 32 33 42 42 36 34 38 35 26 28 35 38 40 37 35 38 44 45 42 34 28 26 23 20 21 23 24 22
11 10 12 16 17 18 25 27 29 34 37 38 34 33 36 40 43 41 42 40 41 40 41 38 34 37 41 48 48 48 50 49 46 48 52 53 49 43 37 36 35 31 28 29
16 14 12 13 14 16 19 22 25 26 29 34 33 38 43 38 38 38 39 38 42 39 45 41 44 44 51 56 58 59 57 55 53 52 51 53 56 59 58 48 42 40 37 36
21 14 14 11 10 14 14 16 20 22 23 26 29 30 30 32 40 41 41 37 36 39 40 41 42 44 47 50 54 58 60 58 56 53 54 51 50 50 48 46 45 42 42 42
19 22 19 14 11 14 15 16 17 18 20 24 28 27 30 36 40 43 42 40 42 42 42 42 44 46 45 47 52 55 56 57 53 54 54 54 58 61 59 56 56 53 50 47
Wind_Direction_850mb
273 281 284 281 275 269 260 262 262 262 271 263 274 301 316 309 309 322 337 4 148 163 149 148 145 141 140 137 135 136 137 136 137 139 141 145 149 152 153 152 155 160 161 167
274 268 270 270 268 264 263 259 259 264 266 271 281 283 288 293 306 310 320 336 175 176 161 151 146 144 142 140 139 139 138 137 137 137 141 146 150 154 152 157 160 160 158 154
255 264 274 273 266 258 252 249 242 252 262 263 266 272 276 284 294 301 303 317 181 184 167 156 154 150 147 145 141 140 140 141 141 140 145 151 153 156 158 161 160 154 154 139
281 272 255 254 46 297 297 275 258 253 259 262 265 271 272 274 279 289 292 293 181 182 169 162 155 152 150 149 146 143 144 144 146 149 154 160 163 161 161 161 164 163 152 128
242 227 266 285 294 351 2 285 285 262 257 268 267 267 265 267 273 277 279 252 180 177 166 159 157 157 154 151 149 149 149 150 156 153 158 154 154 160 164 163 163 167 163 133
260 248 256 24 101 28 296 280 305 255 255 267 246 242 253 232 328 299 256 190 168 166 161 158 160 159 155 154 153 155 156 152 151 154 158 158 160 166 170 169 174 173 162 157
242 254 267 279 30 337 239 355 341 342 329 318 248 250 280 300 305 306 209 163 159 160 161 161 160 160 159 157 158 156 151 150 148 155 158 166 167 173 172 169 180 172 164 165
237 244 260 46 323 231 317 305 303 299 297 292 279 269 273 283 287 289 183 157 157 159 159 160 161 160 161 161 159 153 151 149 153 154 152 157 164 176 178 188 181 178 171 175
261 308 294 296 254 274 272 262 270 271 282 277 281 272 277 279 269 249 165 156 158 158 158 160 162 163 160 160 158 157 146 152 154 153 155 158 169 181 183 185 176 171 168 159
315 289 278 309 305 324 343 327 247 277 280 287 279 276 278 264 232 178 154 167 160 157 159 160 161 161 161 161 160 155 151 150 150 151 153 153 160 173 172 166 163 172 163 162
252 278 309 354 353 342 348 22 28 18 4 343 338 336 295 203 196 169 166 163 162 159 159 161 160 159 161 162 160 154 153 148 151 158 152 157 149 153 148 149 153 164 165 163
319 327 1 335 345 345 350 7 14 12 5 17 3 359 1 118 135 151 148 158 170 162 155 156 161 158 162 164 162 156 158 149 152 151 147 153 150 143 139 135 145 154 148 149
324 349 359 349 345 346 349 356 4 13 25 35 40 78 78 87 95 98 109 154 162 170 167 163 159 165 166 166 168 165 163 160 151 147 149 152 153 148 145 136 125 125 139 155
357 350 357 358 359 352 0 3 1 27 36 44 47 75 81 80 90 92 101 114 138 156 168 170 169 167 170 169 170 171 168 165 157 151 144 148 156 162 140 139 137 133 139 144
5 4 16 359 5 2 6 16 22 23 29 37 52 72 78 85 86 90 98 104 116 116 133 158 165 168 171 171 172 174 172 168 166 157 150 141 158 157 150 143 138 138 140 147
11 15 15 12 7 14 5 17 31 18 28 39 43 61 71 79 83 81 88 112 120 114 102 107 118 130 163 172 173 176 175 173 166 160 158 153 144 155 150 142 135 143 137 156
15 23 9 10 11 12 17 14 32 25 28 34 42 61 69 77 84 81 84 94 106 112 114 141 146 125 140 170 176 178 180 185 175 173 168 166 155 153 160 157 148 143 140 141
35 26 16 10 8 17 22 13 22 40 34 43 57 75 68 74 72 81 90 95 95 95 108 121 142 170 167 159 172 182 183 184 178 179 172 172 171 168 159 161 161 155 153 151
49 39 23 17 24 20 29 32 30 52 41 52 62 70 69 70 73 76 84 93 91 92 89 103 138 168 186 176 163 176 182 178 179 179 175 173 171 176 175 170 164 164 164 172
72 50 35 26 26 28 33 38 48 62 60 58 61 69 68 72 75 75 86 86 78 72 80 89 119 137 170 176 175 149 176 170 167 169 174 174 171 169 174 174 176 171 172 172
72 58 49 42 38 36 36 37 47 57 70 64 61 66 65 64 81 90 79 85 78 84 92 100 95 121 149 175 181 174 146 139 138 135 139 132 130 134 134 132 147 159 151 162
75 63 51 52 49 46 42 46 53 57 69 75 71 74 82 75 75 78 83 82 81 84 92 99 94 100 128 164 171 177 165 163 163 159 159 154 154 155 153 156 153 144 136 127
104 96 70 60 66 63 56 52 54 57 61 61 63 73 79 82 86 90 84 82 83 88 85 86 98 104 115 128 139 146 142 140 144 142 142 142 137 140 139 135 141 147 147 151
143 128 105 85 79 74 72 69 66 66 64 64 67 73 80 85 87 86 89 91 88 87 86 90 102 105 101 101 108 116 120 120 123 124 126 127 124 121 121 119 115 112 114 112
164 147 136 105 86 92 89 80 71 62 66 67 65 64 71 81 86 85 88 90 87 80 85 92 95 96 99 96 96 97 99 102 105 110 113 114 113 111 113 112 107 98 97 98
173 163 153 130 110 113 103 93 91 83 75 74 71 74 75 75 78 83 87 86 80 77 83 82 81 82 86 93 96 93 91 93 98 97 94 94 93 90 90 91 94 93 88 86
179 168 168 157 135 127 126 121 108 97 96 96 92 84 81 79 83 84 83 82 80 80 83 81 80 85 86 88 89 87 91 95 92 90 87 85 85 88 90 91 88 86 83 81